Wind_Speed
46 46 44 44 43 42 42 44 45 43 39 36 34 30 30 30 29 32 25 24 16 13 7 7 10 8 9 9 12 14 9 11 16 22 29 23 23 24 26 30 36 34 26 23
46 47 44 46 43 39 38 40 41 39 34 31 30 28 27 27 29 28 32 20 17 19 15 8 6 8 5 12 11 12 9 11 11 24 32 23 24 27 26 30 34 38 28 25
47 44 42 44 41 39 38 38 39 35 32 32 31 26 27 25 25 25 32 19 18 28 16 11 6 2 6 14 13 4 7 12 23 23 30 30 26 26 29 31 36 39 29 24
47 46 46 45 44 42 43 40 36 32 32 35 37 33 32 31 29 34 34 21 15 29 22 13 8 6 15 17 7 7 9 20 26 31 30 30 26 27 30 30 33 37 29 22
44 42 45 48 43 43 41 36 34 31 30 36 40 28 31 30 25 29 26 19 10 17 20 19 16 7 2 12 17 16 22 22 31 33 28 28 25 29 30 30 32 35 31 24
41 39 40 44 39 41 42 38 33 30 31 40 38 26 31 22 27 25 18 15 11 8 13 21 23 16 16 7 15 19 22 25 24 23 25 27 28 30 32 31 30 31 28 24
37 41 41 40 42 41 45 46 44 43 42 46 37 24 26 22 23 23 18 18 14 14 13 14 20 25 24 21 18 9 12 15 16 22 24 22 24 25 26 24 25 28 22 22
38 44 41 41 43 41 39 38 40 43 42 35 36 24 19 21 20 25 22 18 17 17 12 9 14 13 13 23 14 9 7 11 18 27 26 26 23 23 25 17 19 24 17 21
41 41 43 41 42 41 36 36 36 34 33 33 31 23 17 21 22 27 27 22 24 17 16 7 5 2 7 15 14 9 7 21 29 32 33 31 23 23 24 19 16 22 16 19
39 39 41 37 38 38 35 33 33 33 34 33 26 21 20 23 25 31 31 25 18 12 10 13 10 5 10 11 5 9 17 24 33 38 34 32 26 21 22 19 18 18 13 16
41 39 38 34 33 35 34 33 31 31 29 29 25 19 22 25 28 27 26 25 21 10 3 13 11 6 9 14 13 16 20 28 27 27 28 28 24 21 20 18 15 13 12 14
38 37 36 36 34 33 31 29 29 28 27 23 22 25 22 25 27 25 27 24 18 4 2 14 19 5 9 21 27 28 26 29 32 30 24 19 18 18 20 18 13 12 16 17
35 36 38 37 36 39 34 32 32 29 24 23 25 28 23 25 23 28 27 23 23 13 17 16 18 17 11 15 23 26 34 35 35 35 22 17 14 17 19 17 16 14 15 11
33 32 35 34 34 30 28 28 29 30 26 25 30 24 25 22 25 33 24 27 21 19 18 18 23 21 20 16 17 21 22 33 35 29 19 13 14 16 18 17 16 15 13 12
31 32 34 35 29 27 26 27 30 29 30 29 31 26 26 24 35 31 29 29 16 13 11 12 17 22 24 23 18 20 25 26 30 26 21 15 13 15 17 17 18 17 18 17
31 27 21 23 26 28 30 30 34 31 30 32 29 28 27 31 38 36 33 26 20 19 10 9 14 20 23 16 21 19 22 23 23 21 19 17 16 17 18 17 17 18 18 18
25 21 23 27 33 31 25 27 33 32 32 35 33 30 30 33 33 32 32 30 28 21 16 20 16 20 16 15 21 22 21 26 19 17 16 19 19 19 19 17 18 20 21 22
27 27 27 30 31 27 27 27 32 32 34 34 34 31 30 30 28 24 29 29 28 32 24 24 20 17 15 19 22 20 23 22 16 12 13 17 19 19 18 19 17 18 18 18
30 31 29 29 28 27 27 33 31 32 34 35 33 32 33 29 23 25 29 30 23 31 23 21 19 22 24 22 23 19 18 16 17 18 14 19 22 23 21 21 20 20 20 23
31 30 30 30 27 25 31 29 29 32 34 34 33 32 32 28 26 27 27 27 25 25 29 27 29 29 22 25 24 26 25 21 21 21 22 23 25 28 28 28 28 27 28 27
34 33 32 32 28 25 29 31 29 33 35 35 34 33 32 32 33 33 32 29 29 25 29 24 26 25 25 26 27 29 29 28 29 27 28 28 28 29 30 31 32 32 34 35
38 39 38 35 31 28 35 35 35 37 38 39 38 39 37 37 38 35 32 29 29 27 25 25 29 29 32 34 33 32 31 32 34 33 34 36 35 35 36 37 36 36 36 38
45 43 42 38 36 36 39 38 39 40 41 43 44 43 41 38 38 35 33 33 30 26 28 33 36 39 41 39 37 34 35 39 39 41 43 45 45 43 42 43 44 40 39 40
53 49 47 42 39 41 44 45 43 43 44 45 46 46 46 43 42 40 39 37 36 31 38 39 42 46 46 44 45 42 44 43 42 44 49 49 48 48 51 52 53 53 48 49
62 58 53 49 44 43 47 50 49 46 46 48 48 47 49 46 46 41 42 42 39 36 42 43 44 49 48 48 48 49 49 49 47 52 56 57 59 60 57 56 55 58 58 66
68 66 62 56 53 49 48 51 52 51 50 50 49 49 50 51 45 46 48 45 47 42 43 44 47 42 50 53 53 52 51 52 52 54 58 63 64 66 67 62 64 73 71 70
Wind_Direction
252 253 257 262 261 267 270 275 278 280 285 285 284 282 281 283 282 282 280 225 210 220 234 251 280 276 285 277 310 307 4 340 310 325 324 317 326 337 340 341 343 331 322 286
254 257 259 264 268 267 272 277 281 283 283 282 282 279 274 273 271 279 287 254 230 193 220 218 299 273 277 224 275 314 343 357 311 326 324 313 322 332 333 332 341 337 324 307
250 256 259 265 267 269 271 272 282 279 281 280 280 291 294 279 274 281 283 277 218 200 222 228 215 210 208 244 261 2 316 295 289 303 308 306 322 322 321 326 334 335 327 316
250 254 257 263 266 268 266 273 266 265 272 281 285 294 295 285 276 280 283 280 226 205 223 233 183 169 218 228 264 196 238 270 272 291 301 298 303 314 311 323 327 331 326 320
254 255 259 262 262 266 268 264 260 263 272 283 288 292 283 290 279 272 275 280 268 218 226 230 216 175 171 229 233 226 247 274 292 298 298 302 304 305 308 316 320 329 325 323
251 254 254 256 260 261 268 268 268 272 273 287 288 284 279 285 279 270 279 264 265 226 214 219 216 236 244 239 243 266 274 282 299 313 307 306 303 300 305 311 319 322 322 333
256 258 258 258 260 261 261 262 263 269 270 282 284 274 266 279 259 260 251 229 219 201 187 198 224 238 255 276 287 294 309 323 313 305 312 311 310 318 317 319 317 321 328 344
257 261 260 260 261 262 265 266 266 264 270 264 276 266 275 264 243 251 244 221 208 177 165 175 208 234 257 277 287 290 331 341 339 332 320 312 306 318 321 326 320 328 329 347
258 259 262 261 262 260 260 262 263 265 266 271 282 274 266 243 231 240 244 218 201 181 243 192 155 287 327 295 279 277 257 320 329 319 313 313 301 309 324 329 312 328 328 346
253 254 257 258 256 257 257 257 259 259 261 275 268 272 229 233 226 230 238 221 205 229 230 244 229 219 326 290 255 312 330 319 318 313 307 306 296 300 321 324 319 324 330 350
246 248 252 251 253 254 254 258 259 259 264 260 260 258 223 231 226 228 232 219 198 234 336 282 210 207 287 281 275 292 325 334 325 320 306 297 289 291 313 323 318 311 331 346
242 245 251 250 244 248 253 255 256 256 255 254 257 246 229 226 229 231 228 212 200 271 304 257 212 236 273 258 259 274 295 335 320 327 316 304 286 291 304 318 325 315 311 328
240 243 251 250 249 246 244 244 246 245 245 248 242 240 229 225 230 229 211 205 216 241 261 246 234 236 245 277 264 281 280 314 333 337 327 314 297 290 299 309 315 321 316 317
236 239 247 249 253 258 257 245 240 239 234 237 233 238 236 242 243 216 200 198 210 256 246 248 239 232 240 281 283 297 307 321 327 334 329 322 302 293 289 301 307 303 300 295
233 232 240 247 253 253 242 243 240 233 225 227 230 228 227 240 235 203 209 226 236 258 259 272 271 253 258 266 288 296 314 326 338 354 347 342 318 304 300 300 296 294 292 293
238 254 237 238 247 238 237 235 235 227 216 214 216 221 224 235 232 218 234 235 246 247 265 222 226 224 239 262 287 306 311 339 337 352 351 353 350 333 322 319 311 303 290 288
228 218 230 234 238 245 243 237 225 222 207 209 206 212 224 233 234 240 239 239 241 239 250 244 228 220 233 266 282 291 297 316 341 338 350 9 2 356 356 341 327 315 311 313
233 227 226 234 236 245 240 229 221 209 203 207 207 212 221 232 228 222 225 228 217 227 240 232 252 242 240 250 267 281 304 318 335 328 324 1 8 7 358 347 344 339 333 328
231 231 234 230 238 236 233 219 213 204 202 207 213 219 225 222 206 208 210 208 224 230 233 244 243 247 255 265 267 279 290 306 306 322 325 333 342 340 341 341 343 339 327 322
237 233 233 237 236 230 219 215 205 203 205 213 219 219 222 221 214 207 215 225 235 234 238 251 250 251 251 257 269 273 284 295 297 310 320 324 326 325 329 328 327 326 324 323
237 237 233 234 242 215 216 214 208 206 212 214 221 218 218 221 220 214 218 225 232 233 242 241 249 255 258 262 267 272 276 286 292 295 303 309 312 312 314 314 314 313 313 313
229 236 236 235 233 223 215 208 206 207 214 216 220 223 223 221 224 222 226 228 230 229 240 253 252 258 260 261 266 271 273 281 284 294 300 302 304 306 306 303 302 305 309 309
233 234 235 232 232 226 224 219 213 212 216 221 220 223 226 225 227 227 216 219 222 230 243 247 247 251 257 259 263 267 270 278 284 290 293 297 298 297 297 299 299 297 302 305
231 232 235 234 227 230 228 228 224 221 222 220 221 221 224 227 229 230 215 207 211 226 240 247 253 250 254 254 260 263 272 279 282 287 294 294 296 297 299 304 295 295 291 300
231 230 230 232 230 228 233 233 234 231 228 226 223 223 225 229 232 227 213 215 216 241 242 235 245 252 253 260 263 271 277 279 283 290 294 297 292 294 292 294 299 297 293 297
234 230 229 227 228 227 226 235 235 235 233 231 229 227 228 229 231 227 225 218 221 235 227 242 247 254 256 264 270 272 273 281 284 285 290 294 289 291 296 294 296 299 298 297
Height
10871 10874 10882 10882 10888 10890 10890 10886 10886 10890 10895 10896 10891 10891 10891 10889 10888 10886 10888 10897 10899 10899 10900 10900 10902 10904 10905 10904 10904 10904 10904 10903 10905 10903 10902 10899 10895 10892 10888 10886 10882 10878 10873 10872
10863 10868 10873 10874 10879 10882 10883 10881 10880 10882 10886 10887 10885 10884 10886 10886 10885 10882 10880 10888 10892 10893 10896 10897 10901 10902 10900 10901 10900 10899 10899 10899 10902 10900 10896 10893 10891 10888 10884 10880 10878 10875 10869 10865
10856 10862 10866 10867 10870 10874 10877 10877 10876 10874 10877 10876 10877 10879 10879 10879 10879 10878 10874 10880 10884 10886 10891 10894 10898 10897 10898 10897 10895 10896 10895 10899 10896 10895 10894 10889 10887 10883 10881 10878 10873 10869 10864 10859
10850 10856 10859 10861 10863 10866 10866 10873 10870 10870 10871 10869 10870 10875 10872 10871 10871 10869 10868 10874 10877 10883 10889 10892 10895 10895 10894 10894 10893 10894 10894 10893 10893 10892 10889 10885 10882 10881 10879 10876 10871 10867 10861 10856
10843 10848 10851 10852 10855 10856 10858 10862 10863 10867 10869 10865 10863 10869 10867 10863 10862 10862 10865 10871 10875 10877 10881 10885 10893 10895 10894 10892 10893 10891 10890 10889 10889 10886 10884 10880 10876 10875 10873 10871 10867 10863 10857 10852
10835 10837 10841 10843 10848 10851 10850 10854 10857 10860 10862 10858 10857 10863 10861 10861 10856 10856 10864 10867 10870 10872 10875 10878 10884 10889 10890 10892 10890 10889 10887 10886 10883 10881 10880 10877 10873 10871 10867 10865 10860 10857 10853 10848
10829 10828 10832 10837 10839 10842 10842 10846 10850 10852 10852 10852 10852 10855 10857 10857 10853 10854 10860 10862 10865 10867 10870 10874 10880 10882 10886 10885 10886 10884 10883 10881 10880 10879 10875 10873 10869 10865 10863 10860 10856 10852 10848 10845
10821 10820 10826 10829 10831 10833 10836 10839 10841 10842 10844 10845 10844 10848 10853 10852 10853 10850 10853 10860 10864 10867 10870 10873 10877 10880 10880 10881 10879 10880 10878 10878 10877 10873 10871 10868 10865 10862 10860 10857 10853 10849 10846 10842
10813 10814 10816 10820 10822 10824 10829 10831 10832 10834 10837 10838 10840 10844 10847 10845 10847 10846 10846 10856 10860 10866 10866 10864 10868 10874 10876 10880 10877 10875 10874 10872 10869 10868 10867 10864 10861 10858 10855 10853 10850 10846 10844 10840
10806 10806 10807 10812 10813 10816 10820 10825 10826 10828 10829 10832 10834 10838 10840 10840 10841 10842 10844 10851 10856 10861 10860 10859 10863 10867 10873 10876 10873 10873 10870 10870 10869 10864 10859 10857 10854 10854 10851 10848 10847 10845 10842 10840
10794 10798 10800 10803 10806 10810 10814 10818 10820 10821 10824 10825 10827 10832 10834 10835 10837 10840 10843 10849 10853 10857 10858 10859 10861 10865 10870 10870 10870 10870 10868 10866 10864 10859 10853 10849 10848 10848 10847 10844 10843 10841 10840 10838
10787 10791 10793 10796 10798 10801 10806 10810 10813 10815 10816 10820 10822 10823 10827 10830 10832 10836 10840 10844 10851 10852 10854 10856 10859 10862 10864 10863 10865 10866 10864 10863 10860 10854 10846 10842 10842 10843 10843 10841 10840 10838 10837 10836
10781 10785 10785 10788 10790 10791 10796 10801 10803 10807 10810 10813 10814 10814 10821 10824 10828 10830 10836 10844 10847 10851 10852 10855 10858 10859 10859 10859 10860 10861 10860 10860 10856 10848 10841 10839 10838 10839 10839 10837 10836 10836 10836 10834
10772 10777 10777 10780 10781 10785 10790 10794 10796 10800 10804 10807 10807 10812 10814 10817 10820 10825 10835 10839 10845 10848 10848 10851 10855 10857 10857 10856 10857 10859 10858 10856 10852 10846 10840 10837 10837 10836 10835 10835 10834 10833 10833 10832
10764 10768 10771 10771 10775 10780 10784 10787 10788 10792 10797 10800 10802 10806 10811 10813 10815 10824 10831 10835 10841 10842 10847 10849 10853 10855 10856 10855 10856 10856 10855 10851 10846 10842 10838 10836 10834 10833 10833 10832 10830 10830 10830 10830
10756 10761 10765 10766 10767 10772 10774 10779 10781 10786 10791 10794 10798 10800 10807 10808 10814 10822 10825 10831 10835 10837 10842 10845 10848 10851 10852 10852 10852 10851 10851 10847 10844 10842 10837 10836 10833 10832 10830 10828 10827 10827 10827 10828
10749 10753 10759 10762 10761 10763 10768 10771 10775 10780 10786 10789 10792 10795 10799 10804 10810 10817 10822 10826 10831 10833 10838 10842 10845 10847 10847 10847 10847 10847 10846 10845 10843 10838 10836 10832 10830 10828 10827 10826 10825 10824 10824 10823
10745 10748 10750 10753 10756 10759 10759 10765 10771 10776 10781 10786 10789 10792 10795 10799 10806 10813 10816 10821 10827 10830 10834 10837 10839 10841 10843 10842 10843 10841 10840 10839 10839 10838 10835 10831 10828 10827 10826 10826 10824 10824 10822 10820
10740 10743 10745 10746 10749 10753 10756 10760 10765 10771 10776 10780 10785 10790 10793 10797 10803 10808 10812 10817 10821 10824 10828 10831 10834 10834 10836 10837 10836 10833 10834 10834 10835 10834 10830 10828 10825 10825 10824 10823 10822 10821 10819 10816
10735 10737 10740 10743 10745 10747 10750 10757 10763 10768 10772 10776 10781 10787 10792 10797 10799 10805 10808 10812 10818 10821 10823 10826 10826 10827 10830 10830 10828 10827 10828 10828 10827 10826 10825 10823 10822 10821 10818 10818 10817 10816 10814 10812
10729 10732 10735 10737 10742 10744 10745 10752 10759 10764 10767 10773 10777 10782 10787 10790 10793 10798 10803 10807 10810 10814 10818 10822 10822 10820 10820 10820 10821 10820 10820 10820 10820 10819 10819 10819 10818 10816 10814 10813 10812 10809 10807 10804
10721 10724 10728 10733 10738 10742 10741 10745 10751 10757 10762 10766 10769 10773 10778 10783 10786 10793 10798 10802 10806 10808 10811 10814 10815 10813 10812 10812 10812 10813 10813 10814 10814 10812 10810 10810 10809 10808 10806 10806 10804 10801 10798 10795
10712 10716 10720 10727 10732 10734 10737 10741 10746 10749 10754 10757 10761 10764 10769 10775 10780 10785 10791 10794 10798 10801 10803 10806 10805 10804 10805 10804 10804 10804 10805 10805 10804 10804 10802 10801 10799 10797 10796 10795 10792 10789 10787 10784
10701 10707 10712 10718 10725 10728 10731 10734 10739 10742 10745 10749 10753 10757 10761 10766 10770 10774 10779 10783 10785 10784 10789 10791 10792 10792 10792 10794 10795 10796 10796 10795 10794 10794 10792 10791 10790 10787 10785 10784 10779 10776 10773 10769
10687 10694 10701 10708 10715 10720 10724 10727 10731 10736 10738 10742 10747 10751 10754 10759 10763 10768 10772 10775 10774 10775 10777 10778 10778 10780 10784 10784 10785 10786 10786 10786 10784 10783 10780 10779 10778 10776 10773 10769 10767 10763 10759 10755
10672 10680 10687 10696 10703 10708 10714 10717 10721 10726 10732 10736 10740 10744 10747 10751 10755 10758 10761 10764 10766 10766 10767 10768 10768 10769 10772 10772 10773 10774 10774 10773 10772 10770 10767 10766 10764 10759 10756 10751 10747 10745 10741 10736